This demonstration page uses our WeatherBlox Daily Observations layout. Learn more.

Left ArrowRight Arrow

39.95238, -75.16362

Hourly Observations for December 3, 2022

Temp ( °F °C ) Dew Point ( °F °C ) Humidity (%) Winds ( mph kmh ) Pressure ( in mb ) Visibility ( mi km ) Precip ( " mm )
12:54 am 00:54 Cloudy 46 7.8 38 3.3 73 73 SSW 6 9 30.35 1028 10 16 0.01 0.13
1:54 am 01:54 Cloudy 49 9.4 41 5 74 74 SSW 8 13 30.33 1027 10 16 0.00 0.00
2:54 am 02:54 Cloudy 52 11.1 43 6.1 71 71 SSW 12 19 30.29 1026 10 16 0.00 0.00
3:54 am 03:54 Cloudy 52 11.1 45 7.2 77 77 SSW 15 24 30.25 1025 10 16 0.00 0.00
4:54 am 04:54 Cloudy 52 11.1 47 8.3 83 83 S 15 24 30.23 1024 10 16 0.00 0.00
5:54 am 05:54 Cloudy with Light Rain 52 11.1 48 8.9 86 86 SSW 12 19 30.23 1024 10 16 0.01 0.13
6:49 am 06:49 Cloudy with Light Rain 52 11 48 9 87 87 SSW 10 17 30.22 1023 10 16 0.01 0.25
6:54 am 06:54 Cloudy with Light Rain 52 11.1 48 8.9 86 86 SSW 8 13 30.22 1023 10 16 0.01 0.25
7:26 am 07:26 Cloudy with Light Rain 52 11.1 49 9.4 89 89 SSW 10 17 30.23 1024 5 8 0.01 0.25
7:54 am 07:54 Cloudy with Light Rain 53 11.7 50 10 89 89 SSW 13 20 30.21 1023 5 8 0.05 1.27
8:23 am 08:23 Cloudy with Light Rain 53 11.7 50 10 89 89 SSW 14 22 30.19 1022 7 11 0.02 0.51
8:41 am 08:41 Cloudy with Light Rain 53 11.7 50 10 89 89 SSW 14 22 30.19 1022 4 6 0.03 0.76
8:54 am 08:54 Cloudy with Rain 53 11.7 50 10 89 89 SSW 15 24 30.18 1022 4 6 0.06 1.52
9:48 am 09:48 Cloudy with Rain 54 12 52 11 94 94 SSW 18 30 30.16 1021 5 8 0.09 2.29
9:54 am 09:54 Cloudy with Rain 55 12.8 52 11.1 89 89 SSW 23 37 30.15 1021 5 8 0.10 2.54
10:32 am 10:32 Cloudy with Rain 55 12.8 52 11.1 89 89 SSW 18 30 30.13 1020 3 5 0.05 1.27
10:54 am 10:54 Cloudy with Rain 55 12.8 53 11.7 93 93 SSW 21 33 30.10 1019 3 5 0.11 2.79
11:29 am 11:29 Cloudy with Light Rain 56 13.3 53 11.7 90 90 SSW 22 35 30.09 1019 5 8 0.08 2.03
11:54 am 11:54 Cloudy with Rain 56 13.3 53 11.7 90 90 SSW 23 37 30.07 1018 5 8 0.10 2.54
12:05 pm 12:05 Cloudy with Rain 56 13.3 53 11.7 90 90 SW 21 33 30.06 1018 2 3 0.01 0.25
12:36 pm 12:36 Cloudy with Light Rain 56 13.3 54 12.2 93 93 SW 20 31 30.05 1018 4 6 0.05 1.27
12:45 pm 12:45 Cloudy with Light Rain 57 13.9 54 12.2 89 89 SW 21 33 30.04 1017 9 14 0.06 1.52
12:54 pm 12:54 Cloudy with Light Rain 57 13.9 53 11.7 87 87 SW 26 43 30.03 1017 7 11 0.06 1.52
1:15 pm 13:15 Cloudy 57 13.9 54 12.2 89 89 SW 22 35 30.02 1017 10 16 0.01 0.13
1:47 pm 13:47 Cloudy 58 14.4 54 12.2 87 87 SW 24 39 30.00 1016 10 16 0.01 0.13
1:54 pm 13:54 Cloudy 59 15 54 12.2 83 83 SW 23 37 30.01 1016 10 16 0.01 0.13
2:54 pm 14:54 Cloudy 59 15 54 12.2 83 83 SW 25 41 30.00 1016 10 16 0.00 0.00
3:54 pm 15:54 Mostly Cloudy 58 14.4 54 12.2 87 87 SW 15 24 30.00 1016 10 16 0.00 0.00
4:26 pm 16:26 Mostly Cloudy 58 14.4 54 12.2 87 87 SW 14 22 30.00 1016 10 16 0.00 0.00
4:54 pm 16:54 Mostly Cloudy 58 14.4 53 11.7 84 84 SW 14 22 30.01 1016 10 16 0.01 0.13
5:54 pm 17:54 Mostly Cloudy 57 13.9 53 11.7 87 87 W 16 26 30.05 1018 10 16 0.00 0.00
6:02 pm 18:02 Mostly Cloudy 57 13.9 53 11.7 87 87 WNW 12 19 30.05 1018 10 16 0.00 0.00
6:54 pm 18:54 Partly Cloudy 58 14.4 52 11.1 81 81 W 13 20 30.06 1018 10 16 0.01 0.13
7:54 pm 19:54 Mostly Clear 53 11.7 38 3.3 56 56 NW 20 31 30.12 1020 10 16 0.00 0.00
8:54 pm 20:54 Mostly Clear 49 9.4 32 0 52 52 NW 26 43 30.15 1021 10 16 0.00 0.00
9:54 pm 21:54 Clear 46 7.8 28 -2.2 49 49 NW 25 41 30.19 1022 10 16 0.00 0.00
10:54 pm 22:54 Clear 45 7.2 29 -1.7 53 53 WNW 7 11 30.21 1023 10 16 0.00 0.00
11:54 pm 23:54 Mostly Clear 44 6.7 27 -2.8 51 51 WNW 10 17 30.21 1023 10 16 0.00 0.00

Powered by AerisWeather